Showing default

CYGFM05, 41884

Orbit data source: Space-Track

CYGFM05, 41884 is an American payload satellite in LEO that was launched on Thu, 15 Dec 2016 UTC via a PEGASUS XL launch vehicle from the Pegasus Launch, Eastern Range Air Space (ERAS). Payload-class satellites include a variety of spacecraft equipped with specific instruments for various scientific and technological missions. These include communications satellites like Starlink; space stations such as the ISS; scientific satellites like the Hubble; Earth observation satellites from companies like Planet Labs, Umbra, and HawkEye 360; GPS; miniature CubeSats for education and research; and military/defense satellites.

Loading next visibility...
Identifier
41884, 2016-078A
Orbit
LEO
Last TLE update
12 hours ago
Origin
Manufacturer
SST-US
Mission
Extended mission Civil Science
Bus & Motor
CYGNSS, Unknown motor
Mass
29 kg wet, 29 kg dry
Launch date (UTC)
2016-12-15 (8 years ago)
Launch vehicle
PEGASUS XL
Launch site
Pegasus Launch, Eastern Range Air Space (ERAS)
Object type
Payload
Rocket body
Debris
Shape & HBR
Half Hex Cyl + 2 Pan, 1.7 m
Radar Cross Section
0.450 m², Medium (>0.1 m² and < 1m²)

Expand to show TLE details & history

TLE from 12 hours ago
0 CYGFM05
1 41884U 16078A   25128.89299736  .00014030  00000-0  34345-3 0  9998
2 41884  34.9617  20.2124 0011268 309.9797  49.9933 15.39834505466095
Epoch: 2025-05-08T21:25Z
Definitive object data (Epoch: 2025-05-08T21:25:54.971Z)
Latitude
Longitude
-168.22361°
Altitude
440.556 km
Speed
7.653 km/s
True Right ascension
01h 20m 50s
True Declination
0° 00' 00"
Sunlit
Object was in daylight at TLE epoch
Visualization TLE readout
Latitude
18.17915°
Longitude
-19.16657°
Altitude
452.387 km
Speed
7.641 km/s
Apparent Right ascension
08h 45m 14s
Apparent Declination
-13° 47' 17"
Sunlit
Object is in full shadow
Visualization observer readout
Local Sidereal Time
17:06:51
Azimuth
282.689° WNW
Elevation
-35.765°
Doppler factor
1
Orbital elements
Apogee altitude
457.572 km
Perigee altitude
442.185 km
Semi-major axis
6,828.015 km
Eccentricity
0.0011268
Inclination
34.9617°
RAAN
20.2124°
Arg. of periapsis
309.9797°
True anomaly
50.09229°
Mean anomaly
49.9933°
Eccentric anomaly
50.04279°
Mean motion
3.84682 °/min
BSTAR
0.00034345
Orbital period
93.58 mins
Loading maneuver chart data...
Loading SW <> Apogee altitude chart data...
Loading historical data...
Loading historical data...
Loading historical data...
Loading historical data...
Loading historical data...
Loading historical data...
Loading historical data...

CYGFM05 Visibility forecast

Observer location: undefined°, undefined°

Span
Click to sort rows by Start time (UTC) header in descending order
Start Az.
Max El. time (UTC)
Max El. Az.
Max El.
End time (UTC)
End Az.
5 mins2025-05-09 21:02:36.541Z212.194° SW2025-05-09 21:04:36.541Z168.622° S22.512°2025-05-09 21:07:36.541Z109.642° ESE
4 mins2025-05-09 22:41:36.541Z226.843° WSW2025-05-09 22:42:36.541Z197.635° SSW29.624°2025-05-09 22:45:36.541Z117.661° SE
4 mins2025-05-10 00:19:36.541Z235.817° WSW2025-05-10 00:21:36.541Z187.25° SSW22.255°2025-05-10 00:23:36.541Z146.396° SSE
|